パンスターズ彗星

C/2024 L3 ( PanSTARRS )

English version
Home page
Updated on July 10, 2024

---------------------------------------------------------------------

・ プロフィール

発見日 2024年6月7日
発見光度 22.4等
発見者 Pan-STARRS 2 telescope (Haleakala)

・ 軌道要素

Epoch 2023 Dec. 2.0 TT = JDT 2460280.5                                          
T 2023 Nov. 26.09058 TT                                 Rudenko                 
q   6.8594671            (2000.0)            P               Q                  
z  -0.0003836      Peri.   59.21488     -0.07052317     -0.53327916             
 +/-0.0000362      Node   294.96352     -0.86585892     +0.45234243             
e   1.0026314      Incl.  111.58611     +0.49529265     +0.71484240             
>From 31 observations 2024 May 29-July 8, mean residual 0".4.                    

・ 光度変化

        m1 = 10.0 + 5 logΔ + 10.0 log r

---------------------------------------------------------------------

軌道要素はM.P.E.C. 2024-N105に掲載されたものです。
光度グラフはComet for Windowsで作成したものです。

---------------------------------------------------------------------

Copyright(C) Seiichi Yoshida (comet@aerith.net). All rights reserved.